DW6513 Weather Reports


Display with metric or nautical units.
time (UTC)temp
F
wind
direction
speed
MPH
gust
MPH
rain 1hr
in
rain 24hr
in
rain mn
in
humidity
%
barometer
mb
20260509040803 59 145 0.0 2.0 0.10 0.19 0.19 92 1009.7
20260509040302 59 167 0.0 2.0 0.10 0.19 0.19 92 1009.7
20260509035802 59 145 0.0 2.0 0.10 0.19 0.19 92 1009.7
20260509035305 59 350 0.0 0.0 0.13 0.19 0.19 90 1009.7
20260509034803 59 145 0.0 0.0 0.16 0.19 0.19 90 1009.9
20260509034303 59 123 0.0 0.0 0.19 0.19 0.19 90 1009.9
20260509033803 60 145 0.0 0.0 0.19 0.19 0.19 90 1009.9
20260509033302 60 167 0.0 3.0 0.16 0.16 0.16 90 1009.9
20260509032306 60 169 0.0 0.0 0.13 0.13 0.13 89 1010.3
20260509031803 60 123 0.0 0.0 0.10 0.10 0.10 89 1010.3
20260509030802 60 123 0.0 0.0 0.10 0.10 0.10 88 1010.4
20260509030302 60 182 0.0 0.0 0.10 0.10 0.10 88 1010.4
20260509025802 60 145 0.0 0.0 0.10 0.10 0.10 87 1010.4
20260509025306 60 145 0.0 3.0 0.06 0.06 0.06 85 1010.4
20260509024802 60 303 0.0 0.0 0.03 0.03 0.03 83 1009.9
20260509024302 61 303 0.0 0.0 0.00 0.00 0.00 83 1009.9
20260509023803 61 167 0.0 2.0 0.00 0.00 0.00 82 1009.9
20260509022802 61 167 0.0 0.0 0.00 0.00 0.00 80 1009.7
20260509022306 61 160 0.0 2.0 0.00 0.00 0.00 80 1009.7
20260509021802 62 280 0.0 0.0 0.00 0.00 0.00 79 1009.7
20260509021302 61 123 0.0 0.0 0.00 0.00 0.00 78 1009.7
20260509020802 61 145 0.0 0.0 0.00 0.00 0.00 78 1008.6
20260509020302 61 156 0.0 0.0 0.00 0.00 0.00 77 1008.6
20260509014802 61 280 0.0 3.0 0.00 0.00 0.00 76 1008.5
20260509014302 62 324 0.0 0.0 0.00 0.00 0.00 76 1008.5
20260509013803 62 303 0.0 0.0 0.00 0.00 0.00 76 1008.5
20260509013302 62 303 0.0 0.0 0.00 0.00 0.00 76 1008.5
20260509012803 62 303 0.0 0.0 0.00 0.00 0.00 75 1008.5
20260509012302 62 82 0.0 3.0 0.00 0.00 0.00 75 1008.5
20260509011803 62 347 0.0 3.0 0.00 0.00 0.00 73 1008.5
20260509011302 63 278 1.0 2.0 0.00 0.00 0.00 73 1008.5
20260509010802 63 303 1.0 3.0 0.00 0.00 0.00 70 1008.2
20260509010303 64 227 2.0 7.0 0.00 0.00 0.00 68 1008.2
20260509005306 65 323 1.0 5.0 0.00 0.00 0.00 66 1008.2
20260509004303 66 303 3.0 7.0 0.00 0.00 0.00 63 1008.1
20260509003803 67 33 5.0 8.0 0.00 0.00 0.00 60 1008.1
20260509003302 67 325 5.0 8.0 0.00 0.00 0.00 59 1008.1
20260509002802 68 10 5.0 8.0 0.00 0.00 0.00 56 1007.9
20260509002305 68 50 5.0 10.0 0.00 0.00 0.00 55 1007.9
20260509001803 69 303 2.0 9.0 0.00 0.00 0.00 54 1007.9
20260509001303 69 347 2.0 9.0 0.00 0.00 0.00 53 1007.9
20260509000803 70 347 2.0 5.0 0.00 0.00 0.00 53 1007.7
20260508235803 70 257 3.0 8.0 0.00 0.00 0.00 52 1007.7
20260508235306 71 332 2.0 8.0 0.00 0.00 0.00 52 1007.7
20260508234802 71 347 2.0 3.0 0.00 0.00 0.00 49 1008.0
20260508234302 71 283 3.0 6.0 0.00 0.00 0.00 49 1008.0
20260508233802 72 257 3.0 6.0 0.00 0.00 0.00 48 1008.0
20260508233303 72 351 3.0 6.0 0.00 0.00 0.00 47 1008.0
20260508232803 73 303 2.0 7.0 0.00 0.00 0.00 47 1007.8
20260508232306 73 319 2.0 7.0 0.00 0.00 0.00 46 1007.8
20260508231802 73 145 2.0 5.0 0.00 0.00 0.00 45 1007.8
20260508231303 73 359 2.0 8.0 0.00 0.00 0.00 44 1007.8
20260508230803 73 347 2.0 8.0 0.00 0.00 0.00 43 1007.5
20260508230302 74 247 3.0 8.0 0.00 0.00 0.00 42 1007.5
20260508225802 75 347 3.0 5.0 0.00 0.00 0.00 41 1007.5
20260508225306 76 18 2.0 6.0 0.00 0.00 0.00 40 1007.5
20260508224802 76 55 2.0 9.0 0.00 0.00 0.00 39 1007.7
20260508223802 76 280 2.0 5.0 0.00 0.00 0.00 39 1007.7
20260508222802 77 190 3.0 5.0 0.00 0.00 0.00 38 1007.3
20260508221303 81 145 5.0 13.0 0.00 0.00 0.00 36 1007.3
20260508220803 80 123 6.0 9.0 0.00 0.00 0.00 36 1007.5
20260508215803 77 33 5.0 8.0 0.00 0.00 0.00 37 1007.5
20260508215306 79 69 5.0 10.0 0.00 0.00 0.00 36 1007.5
20260508214803 81 123 5.0 22.0 0.00 0.00 0.00 35 1007.7
20260508214303 81 86 5.0 15.0 0.00 0.00 0.00 36 1007.7
20260508213802 81 347 5.0 3.0 0.00 0.00 0.00 35 1007.7
20260508213303 80 275 5.0 13.0 0.00 0.00 0.00 36 1007.7
20260508212803 79 347 5.0 8.0 0.00 0.00 0.00 37 1008.4
20260508212306 78 190 5.0 10.0 0.00 0.00 0.00 39 1008.4
20260508211803 78 325 3.0 8.0 0.00 0.00 0.00 39 1008.4
20260508211303 76 43 5.0 13.0 0.00 0.00 0.00 39 1008.4
20260508210803 76 347 5.0 6.0 0.00 0.00 0.00 37 1008.0
20260508210302 77 261 7.0 14.0 0.00 0.00 0.00 37 1008.0
20260508205803 78 167 7.0 14.0 0.00 0.00 0.00 36 1008.0
20260508205306 80 303 6.0 12.0 0.00 0.00 0.00 37 1008.0
20260508204803 80 325 5.0 15.0 0.00 0.00 0.00 39 1008.4
20260508204302 80 145 5.0 15.0 0.00 0.00 0.00 38 1008.4
20260508203303 80 138 6.0 21.0 0.00 0.00 0.00 39 1008.4
20260508202803 80 190 5.0 5.0 0.00 0.00 0.00 41 1008.8
20260508202306 78 135 6.0 13.0 0.00 0.00 0.00 40 1008.8
20260508201802 78 145 5.0 8.0 0.00 0.00 0.00 41 1008.8
20260508201303 79 347 3.0 8.0 0.00 0.00 0.00 40 1008.8
20260508200802 78 213 6.0 7.0 0.00 0.00 0.00 41 1008.9
20260508195802 78 145 5.0 15.0 0.00 0.00 0.00 40 1008.9
20260508195305 77 221 6.0 12.0 0.00 0.00 0.00 42 1008.9
20260508194803 79 347 6.0 14.0 0.00 0.00 0.00 40 1009.0
20260508194303 80 100 5.0 8.0 0.00 0.00 0.00 41 1009.0
20260508193803 79 167 6.0 8.0 0.00 0.00 0.00 43 1009.0
20260508193303 77 199 6.0 13.0 0.00 0.00 0.00 42 1009.0
20260508192803 77 145 5.0 12.0 0.00 0.00 0.00 43 1009.3
20260508192306 75 133 5.0 12.0 0.00 0.00 0.00 45 1009.3
20260508191803 74 190 5.0 12.0 0.00 0.00 0.00 47 1009.3
20260508191303 73 176 5.0 12.0 0.00 0.00 0.00 48 1009.3
20260508190802 73 235 5.0 12.0 0.00 0.00 0.00 48 1009.4
20260508185802 72 213 5.0 12.0 0.00 0.00 0.00 50 1009.4
20260508185306 72 144 5.0 10.0 0.00 0.00 0.00 51 1009.4
20260508184803 72 145 5.0 9.0 0.00 0.00 0.00 50 1009.7
20260508184303 72 145 5.0 9.0 0.00 0.00 0.00 51 1009.7
20260508183803 73 167 6.0 5.0 0.00 0.00 0.00 51 1009.7
20260508183302 72 157 5.0 10.0 0.00 0.00 0.00 52 1009.7
20260508182803 72 190 3.0 9.0 0.00 0.00 0.00 51 1010.2
20260508181803 71 167 3.0 5.0 0.00 0.00 0.00 52 1010.2
20260508181303 71 142 3.0 10.0 0.00 0.00 0.00 52 1010.2
20260508180303 71 151 5.0 13.0 0.00 0.00 0.00 53 1010.1
20260508175803 71 303 5.0 13.0 0.00 0.00 0.00 52 1010.1
20260508175305 71 173 3.0 9.0 0.00 0.00 0.00 53 1010.1
20260508174803 71 167 2.0 6.0 0.00 0.00 0.00 54 1010.9
20260508174302 70 96 4.0 8.0 0.00 0.00 0.00 54 1010.9
20260508173803 69 145 4.0 6.0 0.00 0.00 0.00 54 1010.9
20260508173303 69 167 2.0 6.0 0.00 0.00 0.00 55 1010.9
20260508172803 69 145 2.0 6.0 0.00 0.00 0.00 55 1011.2
20260508172306 68 145 3.0 6.0 0.00 0.00 0.00 56 1011.2
20260508171803 67 123 4.0 8.0 0.00 0.00 0.00 56 1011.2
20260508171303 67 145 2.0 8.0 0.00 0.00 0.00 56 1011.2
20260508170803 67 167 1.0 7.0 0.00 0.00 0.00 58 1011.4
20260508170303 67 155 2.0 6.0 0.00 0.00 0.00 58 1011.4
20260508165802 67 190 1.0 6.0 0.00 0.00 0.00 58 1011.4
20260508164802 67 167 0.0 2.0 0.00 0.00 0.00 59 1011.9
20260508163803 65 303 0.0 3.0 0.00 0.00 0.00 59 1011.9
20260508163303 64 164 1.0 3.0 0.00 0.00 0.00 59 1011.9
20260508162803 64 145 1.0 3.0 0.00 0.00 0.00 59 1011.9
20260508162306 64 145 1.0 6.0 0.00 0.00 0.00 59 1011.9
20260508161802 64 145 1.0 5.0 0.00 0.00 0.00 59 1011.9
20260508161303 64 167 2.0 5.0 0.00 0.00 0.00 59 1011.9
20260508160803 64 145 2.0 5.0 0.00 0.00 0.00 59 1012.4
20260508160302 64 204 2.0 5.0 0.00 0.00 0.00 58 1012.4
20260508155803 64 145 2.0 3.0 0.00 0.00 0.00 58 1012.4
20260508154803 64 100 3.0 8.0 0.00 0.00 0.00 58 1012.0
20260508154303 64 176 3.0 5.0 0.00 0.00 0.00 57 1012.0
20260508153802 64 100 3.0 7.0 0.00 0.00 0.00 58 1012.0
20260508153302 64 145 3.0 6.0 0.00 0.00 0.00 57 1012.0
20260508152802 64 145 2.0 5.0 0.00 0.00 0.00 57 1012.3
20260508152305 64 192 2.0 3.0 0.00 0.00 0.00 57 1012.3
20260508151803 64 213 2.0 5.0 0.00 0.00 0.00 57 1012.3
20260508151303 64 244 2.0 5.0 0.00 0.00 0.00 57 1012.3
20260508150802 64 145 2.0 5.0 0.00 0.00 0.00 57 1012.7
20260508145803 64 145 5.0 8.0 0.00 0.00 0.00 56 1012.7
20260508144803 65 167 6.0 14.0 0.00 0.00 0.00 56 1012.9
20260508144302 65 145 7.0 14.0 0.00 0.00 0.00 56 1012.9
20260508143803 65 145 7.0 12.0 0.00 0.00 0.00 56 1012.9
20260508143303 65 133 5.0 14.0 0.00 0.00 0.00 57 1012.9
20260508142803 65 190 3.0 14.0 0.00 0.00 0.00 58 1012.9
20260508141803 64 190 2.0 5.0 0.00 0.00 0.00 62 1012.9
20260508141303 63 192 3.0 6.0 0.00 0.00 0.00 63 1012.9
20260508140803 62 190 3.0 5.0 0.00 0.00 0.00 64 1012.7
20260508140303 62 253 2.0 5.0 0.00 0.00 0.00 65 1012.7
20260508135803 61 145 2.0 8.0 0.00 0.00 0.00 65 1012.7
20260508135306 61 132 2.0 9.0 0.00 0.00 0.00 66 1012.7
20260508134803 60 190 2.0 9.0 0.00 0.00 0.00 66 1012.6
20260508133803 60 190 1.0 6.0 0.00 0.00 0.00 69 1012.6
20260508133303 59 205 0.0 6.0 0.00 0.00 0.00 69 1012.6
20260508132803 58 190 0.0 0.0 0.00 0.00 0.00 70 1012.6
20260508132306 58 229 1.0 5.0 0.00 0.00 0.00 70 1012.6
20260508131803 58 123 1.0 2.0 0.00 0.00 0.00 71 1012.6
20260508131303 58 222 1.0 5.0 0.00 0.00 0.00 70 1012.6
20260508124803 55 303 0.0 0.0 0.00 0.00 0.00 71 1012.8
20260508123803 55 190 0.0 0.0 0.00 0.00 0.00 72 1012.8
20260508123303 55 176 0.0 0.0 0.00 0.00 0.00 72 1012.8
20260508122803 54 347 0.0 0.0 0.00 0.00 0.00 72 1012.7
20260508121803 54 347 0.0 0.0 0.00 0.00 0.00 73 1012.7
20260508121303 54 206 0.0 0.0 0.00 0.00 0.00 73 1012.7
20260508115306 52 96 0.0 0.0 0.00 0.00 0.00 73 1013.0
20260508114804 52 280 1.0 0.0 0.00 0.00 0.00 65 1012.8
20260508044304 56 145 2.0 6.0 0.00 0.00 0.00 55 1014.8
20260508043804 55 145 0.0 3.0 0.00 0.00 0.00 55 1014.8
20260508043304 55 150 0.0 0.0 0.00 0.00 0.00 55 1014.8
20260508042804 55 167 0.0 0.0 0.00 0.00 0.00 55 1014.8
20260508042306 56 167 0.0 0.0 0.00 0.00 0.00 55 1014.8
20260508041804 56 167 0.0 0.0 0.00 0.00 0.00 55 1014.8
20260508041304 56 145 0.0 0.0 0.00 0.00 0.00 55 1014.8